This demonstration page uses our WeatherBlox Daily Observations layout. Learn more.

Left ArrowRight Arrow

Hourly Observations for March 12, 2020

Temp ( °F °C ) Dew Point ( °F °C ) Humidity (%) Winds ( mph kmh ) Pressure ( in mb ) Visibility ( mi km ) Precip ( " mm )
12:53 am 00:53 Cloudy 47 8.3 42 5.6 83 83 N N/A 30.03 1017 10 16.0934 N/A
1:53 am 01:53 Cloudy 47 8.3 42 5.6 83 83 N N/A 30.02 1017 10 16.0934 N/A
2:53 am 02:53 Cloudy 48 8.9 42 5.6 80 80 N N/A 30 1016 10 16.0934 N/A
3:53 am 03:53 Cloudy 48 8.9 42 5.6 80 80 NE 3 6 30 1016 10 16.0934 N/A
4:19 am 04:19 Cloudy 48 8.9 42 5.6 80 80 N N/A 30 1016 10 16.0934 N/A
4:53 am 04:53 Cloudy 47 8.3 41 5 80 80 NNE 3 6 29.98 1015 10 16.0934 N/A
5:53 am 05:53 Clear 39 3.9 37 2.8 93 93 N N/A 29.97 1015 10 16.0934 N/A
6:53 am 06:53 Mostly Clear 38 3.3 36 2.2 93 93 N N/A 29.98 1015 7 11.26538 N/A
7:09 am 07:09 Mostly Cloudy 40 4.4 38 3.3 93 93 N N/A 30 1016 8 12.87472 N/A
7:53 am 07:53 Cloudy 44 6.7 41 5 89 89 ESE 3 6 29.98 1015 10 16.0934 N/A
8:53 am 08:53 Cloudy 47 8.3 42 5.6 83 83 N N/A 29.99 1016 7 11.26538 N/A
9:53 am 09:53 Cloudy 49 9.4 42 5.6 77 77 E 5 7 29.96 1015 7 11.26538 N/A
10:33 am 10:33 Partly Cloudy 50 10 43 6.1 77 77 N N/A 29.95 1014 8 12.87472 N/A
10:53 am 10:53 Sunny 53 11.7 44 6.7 72 72 N N/A 29.95 1014 9 14.48406 N/A
11:53 am 11:53 Sunny 56 13.3 44 6.7 65 65 SE 3 6 29.92 1013 10 16.0934 N/A
12:53 pm 12:53 Mostly Cloudy 60 15.6 47 8.3 62 62 ESE 6 9 29.89 1012 10 16.0934 N/A
1:53 pm 13:53 Partly Cloudy 65 18.3 49 9.4 56 56 S 7 11 29.85 1011 10 16.0934 N/A
2:53 pm 14:53 Mostly Cloudy 65 18.3 49 9.4 56 56 S 8 13 29.82 1010 10 16.0934 N/A
3:53 pm 15:53 Cloudy 64 17.8 49 9.4 58 58 S 6 9 29.77 1008 10 16.0934 N/A
4:53 pm 16:53 Partly Cloudy 65 18.3 50 10 59 59 SSE 6 9 29.75 1008 10 16.0934 N/A
5:53 pm 17:53 Cloudy 65 18.3 51 10.6 61 61 SSW 3 6 29.76 1008 10 16.0934 N/A
6:53 pm 18:53 Cloudy with Light Rain 61 16.1 54 12.2 78 78 VRB 5 7 29.71 1006 6 9.65604 0.02 0.508
7:53 pm 19:53 Cloudy with Light Rain 59 15 56 13.3 90 90 SE 9 15 29.64 1004 9 14.48406 0.1 2.54
8:53 pm 20:53 Clear 59 15 56 13.3 90 90 S 8 13 29.66 1004 10 16.0934 0.001 0.001
9:26 pm 21:26 Cloudy 59 15 56 13.3 90 90 VRB 6 9 29.68 1005 10 16.0934 N/A
9:38 pm 21:38 Cloudy 60 15.6 56 13.3 86 86 SSE 5 7 29.68 1005 10 16.0934 N/A
9:48 pm 21:48 Cloudy 61 16 57 14 88 88 SSE 8 13 29.66 1005 10 16.0934 N/A
9:53 pm 21:53 Cloudy with Light Rain 60 15.6 57 13.9 90 90 VRB 6 9 29.67 1005 10 16.0934 0.001 0.001
10:01 pm 22:01 Cloudy with Light Rain 60 15.6 57 13.9 90 90 VRB 6 9 29.67 1005 10 16.0934 0.001 0.001
10:53 pm 22:53 Cloudy with Light Rain 60 15.6 58 14.4 93 93 VRB 3 6 29.66 1004 7 11.26538 0.01 0.254
11:11 pm 23:11 Cloudy with Light Rain 60 15.6 58 14.4 93 93 SSW 6 9 29.67 1005 10 16.0934 0.02 0.508
11:25 pm 23:25 Cloudy with Light Rain 60 15.6 58 14.4 93 93 VRB 6 9 29.67 1005 10 16.0934 0.02 0.508
11:30 pm 23:30 Cloudy 60 15.6 58 14.4 93 93 S 5 7 29.67 1005 10 16.0934 0.02 0.508
11:38 pm 23:38 Cloudy 61 16.1 58 14.4 90 90 WSW 3 6 29.66 1005 10 16.0934 0.02 0.508
11:53 pm 23:53 Cloudy with Light Rain 61 16.1 59 15 93 93 VRB 3 6 29.67 1005 10 16.0934 0.02 0.508

Powered by AerisWeather